• In Hungary
  • List of Countries
  • For 7 days
  • Water Temperature
  • Satellite Maps
  • Weather Map
  • News
  • Weather Widgets
  • user-avatar
    Login

    Hourly Weather Braciszow

    Today, 22 August, Wednesday

    Time Temperature Precipitation Wind Pressure Humidity
    00:00 +18°C° 0 mm 1 mps 731 mmHg 79%
    01:00 +18°C° 0 mm 1 mps 731 mmHg 81%
    02:00 +16°C° 0 mm 1 mps 731 mmHg 81%
    03:00 +16°C° 0 mm 1 mps 731 mmHg 82%
    04:00 +16°C° 0 mm 1 mps 731 mmHg 83%
    05:00 +18°C° 0 mm 1 mps 731 mmHg 79%
    06:00 +19°C° 0 mm 1 mps 731 mmHg 75%
    07:00 +20°C° 0 mm 1 mps 732 mmHg 71%
    08:00 +21°C° 0 mm 2 mps 732 mmHg 66%
    09:00 +23°C° 0 mm 2 mps 732 mmHg 60%
    10:00 +25°C° 0 mm 2 mps 732 mmHg 55%
    11:00 +26°C° 0 mm 2 mps 732 mmHg 52%
    12:00 +27°C° 0 mm 2 mps 732 mmHg 49%
    13:00 +28°C° 0 mm 2 mps 731 mmHg 47%
    14:00 +28°C° 0 mm 2 mps 731 mmHg 47%
    15:00 +28°C° 0 mm 1 mps 731 mmHg 46%
    16:00 +28°C° 0 mm 1 mps 730 mmHg 46%
    17:00 +26°C° 0 mm 1 mps 730 mmHg 51%
    18:00 +25°C° 0 mm 1 mps 730 mmHg 56%
    19:00 +23°C° 0 mm 1 mps 730 mmHg 61%
    20:00 +21°C° 0 mm 2 mps 730 mmHg 63%
    21:00 +20°C° 0 mm 2 mps 730 mmHg 65%
    22:00 +20°C° 0 mm 2 mps 730 mmHg 66%
    23:00 +19°C° 0 mm 2 mps 730 mmHg 68%

    Tomorrow, 23 August, Thursday

    Time Temperature Precipitation Wind Pressure Humidity
    00:00 +19°C° 0 mm 2 mps 729 mmHg 69%
    01:00 +20°C° 0 mm 1 mps 729 mmHg 71%
    02:00 +20°C° 0 mm 1 mps 729 mmHg 71%
    03:00 +20°C° 0 mm 1 mps 729 mmHg 71%
    04:00 +20°C° 0 mm 1 mps 729 mmHg 71%
    05:00 +21°C° 0 mm 1 mps 728 mmHg 69%
    06:00 +21°C° 0 mm 2 mps 728 mmHg 68%
    07:00 +23°C° 0 mm 2 mps 728 mmHg 67%
    08:00 +25°C° 0 mm 2 mps 728 mmHg 61%
    09:00 +27°C° 0 mm 3 mps 728 mmHg 56%
    10:00 +29°C° 0 mm 3 mps 729 mmHg 50%
    11:00 +30°C° 0 mm 3 mps 728 mmHg 47%
    12:00 +32°C° 0 mm 4 mps 728 mmHg 43%
    13:00 +33°C° 0 mm 4 mps 728 mmHg 40%
    14:00 +32°C° 0 mm 4 mps 727 mmHg 41%
    15:00 +31°C° 0 mm 3 mps 727 mmHg 42%
    16:00 +31°C° 0 mm 3 mps 727 mmHg 43%
    17:00 +29°C° 0 mm 3 mps 726 mmHg 48%
    18:00 +27°C° 0 mm 3 mps 726 mmHg 54%
    19:00 +26°C° 0 mm 2 mps 726 mmHg 59%
    20:00 +25°C° 0 mm 2 mps 726 mmHg 60%
    21:00 +24°C° 0 mm 2 mps 726 mmHg 62%
    22:00 +23°C° 0 mm 2 mps 726 mmHg 63%
    23:00 +23°C° 0 mm 2 mps 725 mmHg 65%

    Day after tomorrow, 24 August, Friday

    Time Temperature Precipitation Wind Pressure Humidity
    00:00 +21°C° 0 mm 2 mps 725 mmHg 66%
    01:00 +21°C° 0 mm 2 mps 725 mmHg 67%
    02:00 +21°C° 0 mm 2 mps 725 mmHg 67%
    03:00 +21°C° 0 mm 2 mps 724 mmHg 67%
    04:00 +20°C° 0 mm 2 mps 724 mmHg 68%
    05:00 +21°C° 0 mm 3 mps 724 mmHg 66%
    06:00 +22°C° 0 mm 3 mps 724 mmHg 63%
    07:00 +24°C° 0 mm 3 mps 724 mmHg 61%
    08:00 +26°C° 0 mm 4 mps 724 mmHg 56%
    09:00 +28°C° 0 mm 5 mps 724 mmHg 51%
    10:00 +29°C° 0 mm 5 mps 724 mmHg 46%
    11:00 +30°C° 0.1 mm 6 mps 724 mmHg 44%
    12:00 +30°C° 0.1 mm 6 mps 724 mmHg 43%
    13:00 +32°C° 0.1 mm 6 mps 723 mmHg 41%
    14:00 +30°C° 0.1 mm 5 mps 723 mmHg 45%
    15:00 +29°C° 0.1 mm 4 mps 723 mmHg 49%
    16:00 +28°C° 0.1 mm 3 mps 722 mmHg 53%
    17:00 +26°C° 1 mm 3 mps 722 mmHg 61%
    18:00 +24°C° 1 mm 3 mps 722 mmHg 69%
    19:00 +22°C° 1 mm 3 mps 722 mmHg 77%
    20:00 +21°C° 2.1 mm 2 mps 722 mmHg 80%
    21:00 +21°C° 2.1 mm 1 mps 722 mmHg 84%
    22:00 +20°C° 2.1 mm 1 mps 723 mmHg 88%
    23:00 +20°C° 1.1 mm 1 mps 723 mmHg 88%

    25 August, Saturday

    Time Temperature Precipitation Wind Pressure Humidity
    00:00 +20°C° 1.1 mm 1 mps 723 mmHg 89%
    01:00 +19°C° 1.1 mm 1 mps 723 mmHg 89%
    02:00 +18°C° 0.2 mm 2 mps 723 mmHg 90%
    03:00 +18°C° 0.2 mm 2 mps 723 mmHg 90%
    04:00 +17°C° 0.2 mm 2 mps 723 mmHg 91%
    05:00 +17°C° 0.4 mm 3 mps 723 mmHg 90%
    06:00 +17°C° 0.4 mm 3 mps 723 mmHg 89%
    07:00 +17°C° 0.4 mm 3 mps 724 mmHg 88%
    08:00 +18°C° 0.3 mm 3 mps 724 mmHg 83%
    09:00 +18°C° 0.3 mm 3 mps 724 mmHg 79%
    10:00 +19°C° 0.3 mm 3 mps 724 mmHg 74%
    11:00 +19°C° 0.2 mm 3 mps 725 mmHg 71%
    12:00 +20°C° 0.2 mm 3 mps 725 mmHg 68%
    13:00 +20°C° 0.2 mm 4 mps 725 mmHg 66%
    14:00 +19°C° 0.6 mm 4 mps 725 mmHg 69%
    15:00 +18°C° 0.6 mm 4 mps 725 mmHg 73%
    16:00 +17°C° 0.6 mm 4 mps 725 mmHg 77%
    17:00 +15°C° 0.7 mm 4 mps 725 mmHg 80%
    18:00 +14°C° 0.7 mm 3 mps 725 mmHg 84%
    19:00 +13°C° 0.7 mm 3 mps 726 mmHg 87%
    20:00 +12°C° 0.8 mm 3 mps 726 mmHg 88%
    21:00 +13°C° 0.8 mm 2 mps 726 mmHg 88%
    22:00 +13°C° 0.8 mm 2 mps 726 mmHg 89%
    23:00 +12°C° 0.3 mm 2 mps 726 mmHg 89%

    26 August, Sunday

    Time Temperature Precipitation Wind Pressure Humidity
    00:00 +12°C° 0.3 mm 2 mps 726 mmHg 88%
    01:00 +12°C° 0.3 mm 2 mps 726 mmHg 88%
    02:00 +12°C° 0.2 mm 2 mps 725 mmHg 88%
    03:00 +12°C° 0.2 mm 2 mps 725 mmHg 88%
    04:00 +12°C° 0.2 mm 1 mps 725 mmHg 88%
    05:00 +12°C° 0.7 mm 1 mps 725 mmHg 88%
    06:00 +12°C° 0.7 mm 2 mps 726 mmHg 87%
    07:00 +12°C° 0.7 mm 2 mps 726 mmHg 87%
    08:00 +13°C° 0.7 mm 2 mps 726 mmHg 84%
    09:00 +13°C° 0.7 mm 2 mps 726 mmHg 81%
    10:00 +14°C° 0.7 mm 2 mps 726 mmHg 78%
    11:00 +14°C° 0.3 mm 2 mps 726 mmHg 74%
    12:00 +15°C° 0.3 mm 2 mps 726 mmHg 70%
    13:00 +16°C° 0.3 mm 2 mps 726 mmHg 66%
    14:00 +16°C° 0.1 mm 2 mps 727 mmHg 65%
    15:00 +16°C° 0.1 mm 3 mps 727 mmHg 64%
    16:00 +16°C° 0.1 mm 3 mps 727 mmHg 63%
    17:00 +15°C° 0.1 mm 2 mps 727 mmHg 68%
    18:00 +14°C° 0.1 mm 2 mps 727 mmHg 74%
    19:00 +12°C° 0.1 mm 1 mps 727 mmHg 80%
    20:00 +12°C° 0 mm 1 mps 728 mmHg 81%
    21:00 +11°C° 0 mm 1 mps 728 mmHg 82%
    22:00 +11°C° 0 mm 1 mps 728 mmHg 83%
    23:00 +11°C° 0 mm 1 mps 728 mmHg 83%

    27 August, Monday

    Time Temperature Precipitation Wind Pressure Humidity
    00:00 +10°C° 0 mm 1 mps 729 mmHg 82%
    01:00 +10°C° 0 mm 1 mps 729 mmHg 82%
    02:00 +10°C° 0 mm 1 mps 729 mmHg 82%
    03:00 +10°C° 0 mm 1 mps 729 mmHg 82%
    04:00 +10°C° 0 mm 1 mps 729 mmHg 82%
    05:00 +11°C° 0 mm 1 mps 730 mmHg 79%
    06:00 +12°C° 0 mm 2 mps 730 mmHg 76%
    07:00 +13°C° 0 mm 2 mps 731 mmHg 73%
    08:00 +15°C° 0 mm 2 mps 731 mmHg 66%
    09:00 +16°C° 0 mm 2 mps 731 mmHg 59%
    10:00 +18°C° 0 mm 3 mps 731 mmHg 52%
    11:00 +19°C° 0 mm 3 mps 731 mmHg 49%
    12:00 +19°C° 0 mm 3 mps 731 mmHg 47%
    13:00 +20°C° 0 mm 3 mps 731 mmHg 45%
    14:00 +20°C° 0 mm 3 mps 731 mmHg 45%
    15:00 +19°C° 0 mm 3 mps 731 mmHg 45%
    16:00 +19°C° 0 mm 3 mps 731 mmHg 46%
    17:00 +18°C° 0 mm 3 mps 731 mmHg 51%
    18:00 +16°C° 0 mm 2 mps 731 mmHg 56%
    19:00 +14°C° 0 mm 2 mps 731 mmHg 61%
    20:00 +14°C° 0 mm 2 mps 731 mmHg 62%
    21:00 +13°C° 0 mm 1 mps 732 mmHg 62%
    22:00 +12°C° 0 mm 1 mps 732 mmHg 63%
    23:00 +12°C° 0 mm 1 mps 732 mmHg 64%
    Show more